• In Austria
  • List of Countries
  • For 7 days
  • Water Temperature
  • Satellite Maps
  • Weather Map
  • News
  • Weather Widgets
  • user-avatar
    Login

    Hourly Weather Djelfa

    Today, 22 May, Tuesday

    Time Temperature Precipitation Wind Pressure Humidity
    00:00 +17°C° 0 mm 2 mps 663 mmHg 53%
    01:00 +16°C° 0 mm 2 mps 662 mmHg 56%
    02:00 +16°C° 0 mm 2 mps 662 mmHg 58%
    03:00 +15°C° 0 mm 2 mps 662 mmHg 60%
    04:00 +15°C° 0 mm 2 mps 662 mmHg 60%
    05:00 +15°C° 0 mm 2 mps 663 mmHg 59%
    06:00 +14°C° 0 mm 3 mps 663 mmHg 61%
    07:00 +16°C° 0 mm 3 mps 663 mmHg 54%
    08:00 +17°C° 0 mm 4 mps 664 mmHg 48%
    09:00 +18°C° 0 mm 4 mps 664 mmHg 42%
    10:00 +19°C° 0 mm 4 mps 664 mmHg 37%
    11:00 +20°C° 0 mm 3 mps 665 mmHg 33%
    12:00 +20°C° 0 mm 3 mps 665 mmHg 28%
    13:00 +21°C° 0 mm 3 mps 665 mmHg 26%
    14:00 +22°C° 0 mm 3 mps 665 mmHg 24%
    15:00 +22°C° 0 mm 3 mps 665 mmHg 22%
    16:00 +22°C° 0 mm 3 mps 665 mmHg 22%
    17:00 +22°C° 0 mm 3 mps 665 mmHg 23%
    18:00 +22°C° 0 mm 3 mps 665 mmHg 23%
    19:00 +21°C° 0 mm 2 mps 665 mmHg 27%
    20:00 +20°C° 0 mm 2 mps 665 mmHg 30%
    21:00 +19°C° 0 mm 2 mps 666 mmHg 34%
    22:00 +19°C° 0 mm 2 mps 666 mmHg 36%
    23:00 +18°C° 0 mm 2 mps 666 mmHg 37%

    Tomorrow, 23 May, Wednesday

    Time Temperature Precipitation Wind Pressure Humidity
    00:00 +19°C° 0 mm 1 mps 666 mmHg 39%
    01:00 +18°C° 0 mm 1 mps 666 mmHg 40%
    02:00 +18°C° 0 mm 1 mps 665 mmHg 41%
    03:00 +16°C° 0 mm 1 mps 665 mmHg 42%
    04:00 +18°C° 0 mm 1 mps 666 mmHg 40%
    05:00 +19°C° 0 mm 1 mps 666 mmHg 38%
    06:00 +18°C° 0 mm 2 mps 666 mmHg 36%
    07:00 +20°C° 0 mm 3 mps 667 mmHg 32%
    08:00 +21°C° 0 mm 4 mps 667 mmHg 29%
    09:00 +23°C° 0 mm 5 mps 668 mmHg 25%
    10:00 +25°C° 0 mm 5 mps 668 mmHg 24%
    11:00 +26°C° 0 mm 5 mps 668 mmHg 23%
    12:00 +27°C° 0 mm 6 mps 668 mmHg 22%
    13:00 +28°C° 0 mm 5 mps 668 mmHg 21%
    14:00 +28°C° 0 mm 5 mps 668 mmHg 21%
    15:00 +29°C° 0 mm 5 mps 667 mmHg 20%
    16:00 +28°C° 0 mm 5 mps 667 mmHg 21%
    17:00 +28°C° 0 mm 5 mps 667 mmHg 21%
    18:00 +28°C° 0 mm 5 mps 667 mmHg 21%
    19:00 +27°C° 0 mm 5 mps 667 mmHg 24%
    20:00 +26°C° 0 mm 5 mps 667 mmHg 26%
    21:00 +24°C° 0 mm 6 mps 667 mmHg 29%
    22:00 +23°C° 0 mm 6 mps 667 mmHg 31%
    23:00 +22°C° 0 mm 6 mps 667 mmHg 34%

    Day after tomorrow, 24 May, Thursday

    Time Temperature Precipitation Wind Pressure Humidity
    00:00 +21°C° 0 mm 7 mps 667 mmHg 37%
    01:00 +21°C° 0 mm 7 mps 666 mmHg 39%
    02:00 +20°C° 0 mm 6 mps 666 mmHg 41%
    03:00 +20°C° 0 mm 6 mps 666 mmHg 43%
    04:00 +20°C° 0 mm 6 mps 666 mmHg 43%
    05:00 +20°C° 0 mm 7 mps 666 mmHg 43%
    06:00 +20°C° 0 mm 7 mps 667 mmHg 43%
    07:00 +22°C° 0 mm 8 mps 667 mmHg 38%
    08:00 +23°C° 0 mm 9 mps 667 mmHg 33%
    09:00 +26°C° 0 mm 10 mps 668 mmHg 28%
    10:00 +27°C° 0 mm 11 mps 668 mmHg 26%
    11:00 +28°C° 0 mm 11 mps 668 mmHg 24%
    12:00 +29°C° 0 mm 11 mps 668 mmHg 22%
    13:00 +31°C° 0 mm 11 mps 667 mmHg 21%
    14:00 +31°C° 0 mm 11 mps 667 mmHg 20%
    15:00 +32°C° 0 mm 11 mps 667 mmHg 18%
    16:00 +31°C° 0 mm 10 mps 666 mmHg 19%
    17:00 +31°C° 0 mm 9 mps 666 mmHg 19%
    18:00 +31°C° 0 mm 9 mps 666 mmHg 19%
    19:00 +28°C° 0 mm 9 mps 665 mmHg 22%
    20:00 +27°C° 0 mm 10 mps 665 mmHg 25%
    21:00 +26°C° 0 mm 11 mps 665 mmHg 27%
    22:00 +24°C° 0 mm 10 mps 665 mmHg 28%
    23:00 +23°C° 0 mm 10 mps 665 mmHg 29%

    25 May, Friday

    Time Temperature Precipitation Wind Pressure Humidity
    00:00 +23°C° 0 mm 10 mps 665 mmHg 31%
    01:00 +22°C° 0 mm 9 mps 665 mmHg 31%
    02:00 +22°C° 0 mm 9 mps 665 mmHg 31%
    03:00 +22°C° 0 mm 9 mps 665 mmHg 31%
    04:00 +22°C° 0 mm 9 mps 665 mmHg 30%
    05:00 +22°C° 0 mm 8 mps 665 mmHg 30%
    06:00 +22°C° 0 mm 8 mps 665 mmHg 29%
    07:00 +24°C° 0 mm 9 mps 665 mmHg 27%
    08:00 +26°C° 0 mm 9 mps 666 mmHg 24%
    09:00 +28°C° 0 mm 10 mps 666 mmHg 21%
    10:00 +29°C° 0 mm 10 mps 666 mmHg 19%
    11:00 +32°C° 0 mm 10 mps 666 mmHg 18%
    12:00 +33°C° 0 mm 10 mps 666 mmHg 16%
    13:00 +34°C° 0 mm 10 mps 666 mmHg 15%
    14:00 +36°C° 0 mm 10 mps 666 mmHg 14%
    15:00 +35°C° 0 mm 9 mps 665 mmHg 13%
    16:00 +35°C° 0 mm 8 mps 665 mmHg 13%
    17:00 +34°C° 0 mm 7 mps 665 mmHg 13%
    18:00 +34°C° 0 mm 6 mps 665 mmHg 13%
    19:00 +32°C° 0 mm 5 mps 665 mmHg 15%
    20:00 +30°C° 0 mm 5 mps 665 mmHg 16%
    21:00 +29°C° 0 mm 4 mps 665 mmHg 18%
    22:00 +28°C° 0 mm 4 mps 665 mmHg 20%
    23:00 +27°C° 0 mm 3 mps 665 mmHg 22%

    26 May, Saturday

    Time Temperature Precipitation Wind Pressure Humidity
    00:00 +26°C° 0 mm 3 mps 665 mmHg 24%
    01:00 +25°C° 0.1 mm 3 mps 665 mmHg 27%
    02:00 +25°C° 0.1 mm 3 mps 665 mmHg 29%
    03:00 +24°C° 0.1 mm 3 mps 664 mmHg 32%
    04:00 +24°C° 0.1 mm 3 mps 665 mmHg 33%
    05:00 +24°C° 0.1 mm 3 mps 665 mmHg 35%
    06:00 +24°C° 0.1 mm 3 mps 666 mmHg 36%
    07:00 +26°C° 0 mm 4 mps 666 mmHg 33%
    08:00 +28°C° 0 mm 5 mps 667 mmHg 30%
    09:00 +29°C° 0 mm 5 mps 667 mmHg 27%
    10:00 +30°C° 0 mm 6 mps 667 mmHg 26%
    11:00 +32°C° 0 mm 7 mps 667 mmHg 24%
    12:00 +33°C° 0 mm 8 mps 667 mmHg 23%
    13:00 +33°C° 0 mm 8 mps 667 mmHg 22%
    14:00 +33°C° 0 mm 8 mps 667 mmHg 21%
    15:00 +34°C° 0 mm 9 mps 667 mmHg 20%
    16:00 +33°C° 0 mm 9 mps 666 mmHg 21%
    17:00 +32°C° 0 mm 9 mps 666 mmHg 23%
    18:00 +31°C° 0 mm 9 mps 665 mmHg 24%
    19:00 +29°C° 0.4 mm 8 mps 666 mmHg 28%
    20:00 +28°C° 0.4 mm 6 mps 667 mmHg 32%
    21:00 +26°C° 0.4 mm 5 mps 668 mmHg 37%
    22:00 +26°C° 0.1 mm 4 mps 667 mmHg 37%
    23:00 +26°C° 0.1 mm 4 mps 667 mmHg 38%

    27 May, Sunday

    Time Temperature Precipitation Wind Pressure Humidity
    00:00 +26°C° 0.1 mm 4 mps 667 mmHg 39%
    01:00 +25°C° 0.3 mm 5 mps 666 mmHg 39%
    02:00 +24°C° 0.3 mm 6 mps 666 mmHg 40%
    03:00 +23°C° 0.3 mm 7 mps 666 mmHg 41%
    04:00 +23°C° 0 mm 7 mps 666 mmHg 40%
    05:00 +23°C° 0 mm 8 mps 665 mmHg 39%
    06:00 +23°C° 0 mm 8 mps 665 mmHg 38%
    07:00 +24°C° 0.2 mm 9 mps 666 mmHg 34%
    08:00 +26°C° 0.2 mm 10 mps 666 mmHg 31%
    09:00 +27°C° 0.2 mm 11 mps 666 mmHg 28%
    10:00 +28°C° 0 mm 11 mps 666 mmHg 27%
    11:00 +31°C° 0 mm 10 mps 666 mmHg 25%
    12:00 +32°C° 0 mm 10 mps 666 mmHg 24%
    13:00 +32°C° 0 mm 9 mps 666 mmHg 22%
    14:00 +33°C° 0 mm 9 mps 666 mmHg 21%
    15:00 +33°C° 0 mm 8 mps 665 mmHg 20%
    16:00 +31°C° 1.3 mm 8 mps 665 mmHg 28%
    17:00 +28°C° 1.3 mm 7 mps 664 mmHg 37%
    18:00 +26°C° 1.3 mm 7 mps 664 mmHg 45%
    19:00 +24°C° 0.6 mm 8 mps 664 mmHg 43%
    20:00 +24°C° 0.6 mm 8 mps 664 mmHg 41%
    21:00 +23°C° 0.6 mm 9 mps 664 mmHg 40%
    22:00 +23°C° 0.2 mm 9 mps 664 mmHg 38%
    23:00 +23°C° 0.2 mm 9 mps 663 mmHg 36%
    Show more